OpenBCM V1.08-5-g2f4a (Linux)

Packet Radio Mailbox

IZ3LSV

[San Dona' di P. JN]

 Login: GUEST





  
I0OJJ  > KEPS     03.07.25 01:40l 341 Lines 16337 Bytes #55 (0) @ AMSAT
BID : ORB25184.1
Read: GUEST
Subj: 2Line Orbital Elements 25184.AMSAT
Path: IZ3LSV<IK6IHL<IK7NXU<HB9ON<HB9ON<PI8ZTM<VK2IO<VK2RZ<LU9DCE<EA2RCF<
      I0OJJ
Sent: 250703/0025z @:I0OJJ.ITA.EU [Rome] obcm1.08-10-g596e
From: I0OJJ @ I0OJJ.ITA.EU (Gustavo)
To:   KEPS @ AMSAT
X-Info: This message was generated automatically


QST de W1STR

AMSAT Orbital Elements for Amateur Satellites in TLE Format
From Orbital Analysis Office
New England Sci-Tech STEM Education Center
Natick, MA July 03, 2025
To all radio amateurs


These element sets describe the orbits of various satellites 
in use by the amateur radio community. For details see:
www.amsat.org/keplerian-elements-formats/

A daily update of element sets is available at:
www.amsat.org/tle/daily-bulletin.txt
or without bulletin text:
www.amsat.org/tle/dailytle.txt


AO-07
1 07530U 74089B   25183.64144213 -.00000044  00000-0  14155-4 0  9996
2 07530 101.9929 188.1510 0012642  78.7080  44.5266 12.53689914316710
UO-11
1 14781U 84021B   25183.44286609  .00000961  00000-0  10675-3 0  9992
2 14781  97.7555 149.3613 0006249 259.5973 100.4540 14.89440314205042
AO-27
1 22825U 93061C   25183.15501798  .00000066  00000-0  42468-4 0  9993
2 22825  98.7356 244.8222 0009244  52.3083 307.8936 14.30805681656945
FO-29
1 24278U 96046B   25183.67161781 -.00000044  00000-0 -50411-5 0  9990
2 24278  98.5730  74.5234 0348854 282.8291  73.4092 13.53250118426147
NOAA-15
1 25338U 98030A   25183.81007499  .00000175  00000-0  89657-4 0  9990
2 25338  98.5339 208.3811 0009062 294.1152  65.9081 14.26990997411713
GO-32
1 25397U 98043D   25183.52262649  .00000053  00000-0  42950-4 0  9997
2 25397  98.9712 163.1220 0002116 118.6295 241.5096 14.24319738401555
ISS
1 25544U 98067A   25183.85846065 -.00016683  00000-0 -28156-3 0  9992
2 25544  51.6357 229.3983 0002505 324.9211   7.6111 15.50337006517581
NO-44
1 26931U 01043C   25183.41883573  .00000074  00000-0  58656-4 0  9992
2 26931  67.0513  68.7902 0006172 276.8885  83.1515 14.31743837240377
SO-50
1 27607U 02058C   25183.56874984  .00001146  00000-0  15967-3 0  9990
2 27607  64.5523 129.5708 0058913 329.0217  30.7418 14.81679851212638
CO-55
1 27844U 03031E   25183.51569821  .00000251  00000-0  12826-3 0  9998
2 27844  98.6754 191.4928 0010764 117.6241 242.6032 14.24011056141908
CO-57
1 27848U 03031J   25183.54513126  .00000200  00000-0  10764-3 0  9995
2 27848  98.6781 191.5102 0010427 133.2976 226.9073 14.23343640141638
RS-22
1 27939U 03042A   25183.85826774  .00000809  00000-0  13604-3 0  9999
2 27939  98.3299 353.8742 0010265 299.4484 197.1458 14.72397760164257
CO-58
1 28895U 05043F   25183.64482736  .00001181  00000-0  20038-3 0  9990
2 28895  98.2526 328.2871 0013548 230.3804 129.6207 14.71073667 50338
CO-65
1 32785U 08021C   25183.55040400  .00003678  00000-0  26619-3 0  9994
2 32785  97.7846 154.8874 0010903 129.5058 230.7134 15.04596628932536
CO-66
1 32791U 08021J   25183.62893205  .00009739  00000-0  46648-3 0  9996
2 32791  97.7282 164.1916 0005768  91.2749 268.9146 15.19142903933999
RS-30
1 32953U 08025A   25183.74090140  .00000017  00000-0  50432-4 0  9997
2 32953  82.5011 212.7747 0019084 359.3483   0.7569 12.43165859776414
NOAA-19
1 33591U 09005A   25183.84821115  .00000141  00000-0  99398-4 0  9992
2 33591  98.9963 248.6824 0012747 300.1230  59.8678 14.13384336845399
SRMSAT
1 37841U 11058D   25183.24050207  .00000364  00000-0  53816-4 0  9997
2 37841  19.9737  17.4192 0011753 314.4066 213.8383 14.11441665708316
ZACUBE-1
1 39417U 13066B   25183.85094249  .00003338  00000-0  29105-3 0  9997
2 39417  97.7811 140.7444 0043406 336.7134  23.2120 14.96842227628390
Delfi-N3xt
1 39428U 13066N   25183.75270167  .00004085  00000-0  41721-3 0  9991
2 39428  97.8332 101.1477 0082721 284.6885  74.5174 14.88641232622706
GOMX-1
1 39430U 13066Q   25183.87071440  .00001592  00000-0  25204-3 0  9998
2 39430  97.6817  41.1035 0133643 117.5751 243.9103 14.67713569618826
LO-74
1 39440U 13066AA  25183.84637889  .00003137  00000-0  31862-3 0  9995
2 39440  97.8497 128.2476 0063475 102.9381 257.8935 14.90054366626107
AO-73
1 39444U 13066AE  25183.45677272  .00004870  00000-0  36414-3 0  9999
2 39444  97.7800 145.4619 0041155 310.4985  49.2656 15.02581653627028
DTUSAT-2
1 40030U 14033W   25183.37646615  .00004504  00000-0  29301-3 0  9996
2 40030  98.0562 156.3024 0008720 355.5723   4.5426 15.08504266599839
EO-80
1 40032U 14033Y   25183.39549138  .00004957  00000-0  32138-3 0  9996
2 40032  98.0445 155.9455 0006824 287.1955  72.8525 15.08586334599816
LILACSAT-2
1 40908U 15049K   25183.88430068  .00010166  00000-0  26186-3 0  9996
2 40908  97.5051 204.7985 0010961  81.0227 279.2259 15.39357352541810
IO-86
1 40931U 15052B   25151.18580175  .00001241  00000-0  78118-4 0  9996
2 40931   6.0006  24.0987 0012733 338.8432  21.1169 14.78805930523047
Horyu-4
1 41340U 16012D   25183.46116655  .00015913  00000-0  41276-3 0  9997
2 41340  30.9979 337.9648 0006342 304.7254  55.2794 15.37700272516313
Lapan A3
1 41603U 16040E   25183.85014788  .00002562  00000-0  90618-4 0  9998
2 41603  97.1370 187.5462 0011000 176.5257 183.6062 15.29990235501345
CAS-2T
1 41847U 16066G   25183.48760751  .00001374  00000-0  20207-3 0  9999
2 41847  98.4196 257.7494 0347097 109.1809 254.7284 14.43551779454325
CAS-4B
1 42759U 17034B   25183.70228799  .00059997  00000-0  56406-3 0  9998
2 42759  43.0046 183.7766 0019074  91.5352 268.7699 15.66045610446229
CAS-4A
1 42761U 17034D   25183.71541112  .00064872  00000-0  57348-3 0  9993
2 42761  43.0085 180.5842 0020124  96.8883 263.4273 15.67506311446254
TechnoSat
1 42829U 17042E   25183.83124858  .00002327  00000-0  18241-3 0  9990
2 42829  97.3854 351.4274 0016110 194.9045 165.1708 15.01799292434217
AO-91
1 43017U 17073E   25183.59984305  .00007512  00000-0  38086-3 0  9998
2 43017  97.5211  53.7883 0173103  88.2447 273.8597 15.05035036412673
S-Net D
1 43186U 18014G   25183.59668722  .00003761  00000-0  22261-3 0  9993
2 43186  97.5605  86.2688 0010193 137.8900 222.3115 15.12000006405859
S-Net B
1 43187U 18014H   25183.73475081  .00003932  00000-0  23263-3 0  9997
2 43187  97.5609  86.3783 0010975 133.8198 226.3942 15.11980490405871
S-Net A
1 43188U 18014J   25183.59699799  .00003801  00000-0  22490-3 0  9992
2 43188  97.5617  86.3953 0010824 134.7992 225.4121 15.12004574405853
S-Net C
1 43189U 18014K   25183.20777000  .00003744  00000-0  22169-3 0  9992
2 43189  97.5633  86.0281 0012463 130.3298 229.9023 15.11970612404342
Ten-Koh
1 43677U 18084G   25183.46718513  .00001540  00000-0  12685-3 0  9997
2 43677  98.0853 356.6288 0007479 174.1830 185.9481 15.00656425363676
PO-101
1 43678U 18084H   25183.82811552  .00001836  00000-0  15917-3 0  9994
2 43678  98.1034   0.8399 0008273 200.1890 159.9005 14.98407194363866
QO-100
1 43700U 18090A   25183.57170424  .00000152  00000-0  00000-0 0  9999
2 43700   0.0177  40.0175 0002261  95.4402  16.9758  1.00271743 24178
MinXSS-2
1 43758U 18099A   25183.73923755  .00012484  00000-0  48241-3 0  9995
2 43758  97.5007 249.8571 0012973  78.6808 281.5887 15.26308332360508
AO-95
1 43770U 18099N   25183.72910669  .00006827  00000-0  34269-3 0  9997
2 43770  97.4899 241.5620 0012082 128.1134 232.1191 15.17563853360060
RANGE-A
1 43773U 18099R   25183.87303124  .00004190  00000-0  26653-3 0  9997
2 43773  97.4467 231.5997 0012923 110.2389 250.0231 15.09261559359733
MOVE-II
1 43780U 18099Y   25183.71383976  .00583928  14012-3  16300-2 0  9990
2 43780  97.4633 261.4027 0008167 238.9376 121.1097 15.93621626361460
SNUSat 2
1 43782U 18099AA  25183.59507679  .00005239  00000-0  28437-3 0  9994
2 43782  97.4581 237.9926 0013543  77.6940 282.5808 15.14887740359989
SnugLite
1 43784U 18099AC  25183.68830870  .00007341  00000-0  36512-3 0  9997
2 43784  97.4394 237.6915 0005058  84.4460 275.7350 15.17904878360144
ITASat 1
1 43786U 18099AE  25183.62643476  .00005387  00000-0  30650-3 0  9992
2 43786  97.4551 237.4649 0015796 124.3255 235.9474 15.13163372359942
EAGLET 1
1 43790U 18099AJ  25183.88979877  .00003870  00000-0  24677-3 0  9999
2 43790  97.4751 237.6017 0013621 108.3899 251.8813 15.09213719359581
ESEO
1 43792U 18099AL  25183.84169545  .00000721  00000-0  58287-4 0  9997
2 43792  97.4461 230.5093 0014989  83.7258 276.5674 15.02685405359318
CSIM
1 43793U 18099AM  25183.47212575  .00111399  00000-0  58446-3 0  9999
2 43793  97.4768 263.2271 0004323 131.1159 229.0482 15.80443332361252
JO-97
1 43803U 18099AX  25183.60952318  .00008244  00000-0  37168-3 0  9994
2 43803  97.4647 242.4848 0008824  71.8939 288.3257 15.21253173360271
Suomi 100
1 43804U 18099AY  25183.72738470  .00007132  00000-0  34578-3 0  9996
2 43804  97.4712 241.8313 0013675  71.7988 288.4734 15.18742982360210
ISAT
1 43879U 18111D   25183.51211883  .00014891  00000-0  50484-3 0  9998
2 43879  97.5937  98.4213 0010669 112.8111 247.4257 15.30595750357205
UWE-4
1 43880U 18111E   25183.48820878  .00010810  00000-0  41673-3 0  9993
2 43880  97.5883  96.7132 0013573 124.8869 235.3646 15.26421649357127
Sparrow
1 43881U 18111F   25183.21398053  .00013569  00000-0  44294-3 0  9996
2 43881  97.6085 101.0831 0008078 143.9379 216.2408 15.31866033355253
Prox-1
1 44339U 19036A   25183.53930288  .00007394  00000-0  91433-3 0  9995
2 44339  23.9971 270.9402 0007160 340.7860  19.2367 14.80327842321421
SONATE
1 44400U 19038Q   25183.82055877  .02255106  26382-5  69037-3 0  9999
2 44400  97.6658 214.4913 0010531 224.2257 135.8194 16.26668997333306
Taurus 1
1 44530U 19059C   25183.86473645  .00004599  00000-0  84723-3 0  9996
2 44530  98.6093 324.3691 0008072 328.3135  31.7580 14.66058867307356
Duchifat 3
1 44854U 19089C   25183.78772392  .00033087  00000-0  60988-3 0  9991
2 44854  36.9411 207.4381 0004339 169.0258 191.0594 15.48222625306540
TO-108
1 44881U 19093C   25183.86415674  .00000720  00000-0  89120-4 0  9990
2 44881  97.7920 259.0272 0014529 150.1946 210.0100 14.85639132299539
